AirNav   Pilot Hours Calculator
 
 386 users online  

4Y8 Para Field Airport
Yale, Michigan, USA

GOING TO YALE?


FAA INFORMATION EFFECTIVE 20 MAY 2021

Location

FAA Identifier: 4Y8
Lat/Long: 43-12-08.0800N 082-45-14.0000W
43-12.134667N 082-45.233333W
43.2022444,-82.7538889
(estimated)
Elevation: 800 ft. / 244 m (estimated)
Variation: 06W (1985)
From city: 5 miles NE of YALE, MI
Time zone: UTC -4 (UTC -5 during Standard Time)
Zip code: 48097

Airport Operations

Airport use: Open to the public
Activation date: 03/1973
Control tower: no
ARTCC: CLEVELAND CENTER
FSS: LANSING FLIGHT SERVICE STATION
NOTAMs facility: LAN (NOTAM-D service available)
Attendance: UNATNDD
ARPT CLSD OCT - MAR & WHEN SNOW COVERD. CALL AMGR FOR RWY CONDITIONS.
Wind indicator: yes
Segmented circle: no

Airport Communications

CTAF: 122.9

Airport Services

Runway Information

Runway 6/24

Dimensions: 2500 x 65 ft. / 762 x 20 m
Surface: turf, in fair condition
Runway edge markings: RYS 06 & 24 DSPLCD THLDS MKD WITH CONES.
RUNWAY 6  RUNWAY 24
Latitude: 43-12.031333N43-12.238000N
Longitude: 082-45.476000W082-44.989333W
Traffic pattern: leftleft
Displaced threshold: 476 ft.200 ft.
Obstructions: 25 ft. trees, 55 ft. right of centerline
APCH RATIO 20:1 AT DSPLCD THLD. 37 FT TREE 50 FT L 750 FT DSTC.
50 ft. trees, 55 ft. left and right of centerline
APCH RATIO 0:1 AT DSPLCD THLD, 40 FT TREES 0 FT DSTC, 68 FT R.

Airport Ownership and Management from official FAA records

Ownership: Privately-owned
Owner: RALPH P. KOHLITZ
39870 MAZUCHET DR
HARRISON TWP, MI 48045
Phone 313-320-2503
Manager: JEFFERY P. KOHLITZ
39748 CANNON DR
HARRISON TWP, MI 48045
Phone 313-320-2503

Airport Operational Statistics

Aircraft operations: 50/year *
100% transient general aviation
* for 12-month period ending 31 December 2017

Additional Remarks

ROLLING TERRAIN; RY SLOPES DOWNWARD AT BOTH ENDS. OPOSITE RY END NOT VSBL FM THLDS.
FOR CD CTC CLEVELAND ARTCC AT 440-774-0224, IF UNA CTC 440-774-0490.

Instrument Procedures

There are no published instrument procedures at 4Y8.

Some nearby airports with instrument procedures:

77G - Marlette Township Airport (16 nm NW)
KPHN - St Clair County International Airport (20 nm SE)
D95 - Dupont-Lapeer Airport (24 nm W)
D98 - Romeo State Airport (26 nm S)
57D - Ray Community Airport (29 nm S)
 
Loc | Ops | Rwys | IFR | FBO | Links
Com | Nav | Svcs | Stats | Notes
Area around 4Y8 (Para Field Airport)
 
Road maps at: MapQuest Bing Google
 
Aerial photo
No photo
 
Sectional chart

 
Airport distance calculator
Flying to Para Field Airport? Find the distance to fly.

From to 4Y8

Sunrise and sunset
Times for 13-Jun-2021
 Local
(UTC-4)
 Zulu
(UTC)
Morning civil twilight05:1609:16
Sunrise05:5109:51
Sunset21:1101:11
Evening civil twilight21:4601:46

Current date and time
Zulu (UTC)  13-Jun-2021 09:24:41
Local (UTC-4)  13-Jun-2021 05:24:41
 
METAR
KPHN 
20nm SE 
130855Z AUTO 00000KT 10SM CLR 17/14 A2986 RMK AO2
CYZR 
23nm SE 
130800Z AUTO 13006KT 9SM FEW034 19/16 A2985 RMK SLP106 DENSITY ALT 1300FT
KD95 
24nm W 
130855Z AUTO 00000KT 10SM BKN034 18/18 A2989 RMK AO2 T01760175
KCFS 
34nm NW 
130855Z AUTO 00000KT 7SM CLR 16/13 A2987 RMK AO2 T01620131
KMTC 
35nm S 
130856Z AUTO 00000KT 10SM FEW039 20/20 A2985 RMK AO2 SLP109 T01960196 55002 $
KBAX 
36nm N 
130855Z AUTO 02007KT 10SM OVC032 16/14 A2988 RMK AO2 T01570141
TAF
CYZR 
23nm SE 
130738Z 1308/1320 VRB03KT P6SM SCT050 TEMPO 1308/1309 5SM -SHRA BR VCTS BKN050CB FM130900 VRB03KT P6SM SCT050 TEMPO 1309/1314 P6SM -SHRA BKN040 FM131400 36010KT P6SM SCT050 RMK FCST BASED ON AUTO OBS. NXT FCST BY 131400Z
NOTAMs
Click for the latest NOTAMs
NOTAMs are issued by the DoD/FAA and will open in a separate window not controlled by AirNav.

 

 
 

Would you like to see your business listed on this page?

 If your business provides an interesting product or service to pilots, flight crews, aircraft, or users of the Para Field Airport, you should consider listing it here.  To start the listing process, click on the button below
 
Add a business
 

Other Pages about Para Field Airport

Page from the Michigan Airport Directory (PDF)
 
Update a link
 
Copyright © AirNav, LLC. All rights reserved. Privacy Policy  Contact